Dewpoint
50 48 47 47 45 41 38 38 38 40 39 36 35 36 37 36 35 33 34 33 33 34
48 47 45 43 42 41 39 39 40 38 37 37 38 37 34 34 33 33 34 34 32 32
44 44 41 42 41 39 41 40 39 38 38 35 36 35 34 33 33 32 33 32 31 31
43 42 42 40 39 38 40 40 41 37 35 34 34 34 32 32 32 32 32 31 30 29
42 41 40 38 38 42 44 41 36 36 33 34 34 33 33 31 31 31 31 31 27 26
42 41 40 40 43 43 38 37 35 33 32 32 33 33 33 31 31 31 31 30 25 24
43 43 43 43 40 37 35 33 32 32 33 34 34 33 33 31 32 32 30 27 26 25
44 42 40 38 35 34 34 33 33 33 33 34 34 33 32 31 29 29 27 27 26 25
38 36 37 37 36 35 34 33 33 33 34 33 31 33 34 32 28 27 25 25 24 24
37 36 35 33 32 31 32 36 34 32 33 32 32 34 34 34 27 25 25 24 23 24
34 33 33 33 34 38 38 33 31 31 31 31 31 34 34 33 28 24 24 24 25 25
33 33 34 37 38 37 32 31 30 30 29 29 29 33 34 33 28 24 24 24 25 28
34 37 39 37 34 31 31 29 29 28 28 30 29 32 34 33 27 25 25 26 26 29
39 35 33 30 29 29 29 28 28 28 28 28 29 29 33 34 28 27 26 26 26 25
Lifted_Index
0 1 2 3 3 2 2 3 4 5 6 7 8 9 10 11 12 13 13 13 13 13
0 1 2 2 2 2 2 3 4 5 6 8 9 10 12 12 13 13 13 14 14 14
-0 0 1 1 2 2 3 4 5 5 7 9 11 12 12 13 13 13 13 13 14 14
-0 0 1 1 2 3 4 5 5 6 8 10 11 12 12 12 12 12 12 12 13 13
-0 0 1 2 3 4 5 6 7 8 9 10 11 12 12 12 12 12 12 12 12 12
0 1 1 2 4 5 6 7 8 9 10 11 11 12 12 12 11 11 11 11 11 10
1 1 2 4 5 6 7 8 9 10 11 11 12 12 12 11 11 11 10 10 10 9
2 3 4 5 6 8 9 9 10 10 11 11 11 11 11 11 10 10 9 9 9 9
3 4 5 6 8 9 9 10 10 10 10 11 11 11 10 10 10 9 8 8 8 8
4 5 7 8 9 9 9 9 9 10 10 10 10 10 10 9 9 8 7 7 7 7
6 7 8 9 9 9 8 9 10 11 11 11 10 10 9 8 7 7 6 6 7 7
8 8 9 9 9 9 9 10 11 11 11 11 10 9 8 7 6 6 6 6 7 7
9 9 9 9 9 10 11 11 11 11 11 10 9 8 7 6 6 6 6 7 7 7
8 8 9 9 10 11 12 12 11 11 10 9 8 7 6 6 6 6 6 7 7 6